Location: �mondeville
(49.4591°N, 1.3431°W)
Time: 13:25:21
(UTC+00:00)

NOSS 0 Rocket - Pass Details

Date: 22 October 2019
Orbit: 934 x 956 km, 70.0° (Epoch: 12 November)

Event Time Altitude Azimuth Distance (km) Brightness Sun altitude
Exits shadow 03:49:59 61° 189° (S) 1,065 4.0 -27.6°
Maximum altitude 03:51:07 80° 118° (ESE) 961 3.9 -27.4°
Drops below altitude 10° 03:57:21 10° 32° (NNE) 2,678 6.9 -26.4°
Sets 03:59:53 0° 32° (NNE) 3,630 7.6 -26.0°
